SCP
0 0 0 0 0 0 0 0 0 0 0 0 0 0 0 0 0 0 0 1 2 2 3 3 3 3 3 3 3 3 3 3 3 2 2 2 2 2 2 2 2 2 2
0 0 0 0 0 0 0 0 0 0 0 0 0 0 0 0 0 0 0 0 1 1 2 3 3 2 3 3 3 3 3 4 3 3 2 2 2 2 2 3 3 3 3
0 0 0 0 0 0 0 0 0 0 0 0 0 0 0 0 0 0 0 0 0 1 1 1 2 2 2 3 3 3 4 4 4 3 3 3 3 3 3 3 4 3 3
0 0 0 0 0 0 0 0 0 0 0 0 0 0 0 0 0 0 0 0 0 0 0 0 1 1 2 2 3 3 4 4 4 4 4 4 4 4 4 4 4 4 3
0 0 0 0 0 0 0 0 0 0 0 0 0 0 0 0 0 0 0 0 0 0 0 0 0 0 1 1 2 2 3 4 5 5 5 4 4 4 5 5 5 4 3
0 0 0 0 0 0 0 0 0 0 0 0 0 0 0 0 0 0 0 0 0 0 0 0 0 0 0 0 1 1 2 3 4 5 5 5 5 5 5 5 5 4 3
0 0 0 0 0 0 0 0 0 0 0 0 0 0 0 0 0 0 0 0 0 0 0 0 0 0 0 0 0 0 1 2 2 3 4 5 5 5 5 5 4 3 3
0 0 0 0 0 0 0 0 0 0 0 0 0 0 0 0 0 0 0 0 0 0 0 0 0 0 0 0 0 0 0 1 1 2 3 4 5 5 5 4 4 3 3
0 0 0 0 0 0 0 0 0 0 0 0 0 0 0 0 0 0 0 0 0 0 0 0 0 0 0 0 0 0 0 0 1 1 2 3 4 5 5 4 3 3 2
0 0 0 0 0 0 0 0 0 0 0 0 0 0 0 0 0 0 0 0 0 0 0 0 0 0 0 0 0 0 0 0 1 1 1 2 3 5 5 4 3 2 2
0 0 0 0 0 0 0 0 0 0 0 0 0 0 0 0 0 0 0 0 0 0 0 0 0 0 0 0 0 0 0 0 0 1 1 1 2 4 4 4 3 2 2
0 0 0 0 0 0 0 0 0 0 0 0 0 0 0 0 0 0 0 0 0 0 0 0 0 0 0 0 0 0 0 0 0 0 0 1 2 2 3 3 2 2 2
0 0 0 0 0 0 0 0 0 0 0 0 0 0 0 0 0 0 0 0 0 0 0 0 0 0 0 0 0 0 0 0 0 0 0 0 1 1 1 2 2 2 2
0 0 0 0 0 0 0 0 0 0 0 0 0 0 0 0 0 0 0 0 0 0 0 0 0 0 0 0 0 0 0 0 0 0 0 0 0 1 1 1 1 1 1
0 0 0 0 0 0 0 0 0 0 0 0 0 0 0 0 0 0 0 0 0 0 0 0 0 0 0 0 0 0 0 0 0 0 0 0 0 0 0 0 0 0 0
0 0 0 0 0 0 0 0 0 0 0 0 0 0 0 0 0 0 0 0 0 0 0 0 0 0 0 0 0 0 0 0 0 0 0 0 0 0 0 0 0 0 0
0 0 0 0 0 0 0 0 0 0 0 0 0 0 0 0 0 0 0 0 0 0 0 0 0 0 0 0 0 0 0 0 0 0 0 0 0 0 0 0 0 0 0
0 0 0 0 0 0 0 0 0 0 0 0 0 0 0 0 0 0 0 0 0 0 0 0 0 0 0 0 0 0 0 0 0 0 0 0 0 0 0 0 0 0 0
0 0 0 0 0 0 0 0 0 0 0 0 0 0 0 0 0 0 0 0 0 0 0 0 0 0 0 0 0 0 0 0 0 0 0 0 0 0 0 0 0 0 0
0 0 0 0 0 0 0 0 0 0 0 0 0 0 0 0 0 0 0 0 0 0 0 0 0 0 0 0 0 0 0 0 0 0 0 0 0 0 0 0 0 0 0
0 0 0 0 0 0 0 0 0 0 0 0 0 0 0 0 0 0 0 0 0 0 0 0 0 0 0 0 0 0 0 0 0 0 0 0 0 0 0 0 0 0 0
0 0 0 0 0 0 0 0 0 0 0 0 0 0 0 0 0 0 0 0 0 0 0 0 0 0 0 0 0 0 0 0 0 0 0 0 0 0 0 0 0 0 0
0 0 0 0 0 0 0 0 0 0 0 0 0 0 0 0 0 0 0 0 0 0 0 0 0 0 0 0 0 0 0 0 0 0 0 0 0 0 0 0 0 0 0
0 0 0 0 0 0 0 0 0 0 0 0 0 0 0 0 0 0 0 0 0 0 0 0 0 0 0 0 0 0 0 0 0 0 0 0 0 0 0 0 0 0 0
0 0 0 0 0 0 0 0 0 0 0 0 0 0 0 0 0 0 0 0 0 0 0 0 0 0 0 0 0 0 0 0 0 0 0 0 0 0 0 0 0 0 0
0 0 0 0 0 0 0 0 0 0 0 0 0 0 0 0 0 0 0 0 0 0 0 0 0 0 0 0 0 0 0 0 0 0 0 0 0 0 0 0 0 0 0
Wind_Speed
1 1 1 1 2 1 2 2 2 3 4 4 3 2 2 3 3 3 3 10 12 12 12 12 11 11 10 10 10 10 11 11 11 10 10 10 10 10 9 8 7 6 5
1 1 1 1 2 1 1 1 1 2 2 2 3 3 3 2 2 3 4 6 11 13 13 13 12 12 12 12 11 11 12 12 13 13 12 12 12 12 12 11 9 8 6
3 3 3 3 3 2 2 2 2 1 2 2 3 3 2 2 3 4 4 4 5 10 13 13 13 13 12 12 12 12 12 13 13 14 14 14 14 14 14 13 12 11 9
5 4 3 3 3 3 3 3 3 2 3 3 2 2 2 2 4 4 4 4 4 4 7 11 12 12 12 12 12 13 14 14 14 15 16 16 16 16 16 15 14 13 12
6 4 4 3 4 4 4 3 3 3 3 4 3 2 2 2 1 3 3 3 3 3 2 6 10 11 12 12 12 13 14 15 16 16 17 18 18 18 18 18 17 15 14
7 5 5 5 5 4 4 4 4 4 3 3 4 4 3 2 1 1 1 1 2 2 2 3 3 6 11 12 12 13 14 15 16 16 17 18 18 18 19 19 19 17 16
7 7 5 5 5 5 5 4 3 4 4 3 3 4 3 3 3 2 1 2 3 3 4 5 4 5 6 12 14 15 16 16 16 16 17 16 16 17 19 20 19 19 18
7 6 6 5 4 4 5 5 4 2 2 3 2 3 4 3 2 2 3 4 4 4 6 8 8 8 8 6 10 17 17 17 16 16 15 13 13 15 19 20 19 19 18
7 6 5 4 4 4 3 2 2 2 2 2 1 2 3 4 4 3 4 4 4 5 7 9 10 10 10 8 9 13 17 18 18 17 15 13 11 11 16 19 20 19 19
6 6 5 4 4 3 2 3 2 2 2 2 2 2 3 3 5 5 3 4 7 8 9 9 10 11 11 9 10 15 18 17 17 16 15 13 12 10 11 14 17 18 19
5 5 4 4 3 2 2 3 3 2 1 2 2 2 3 3 4 5 7 6 7 8 9 9 9 9 10 9 8 12 17 16 15 15 14 13 13 11 10 13 16 18 20
3 4 3 3 2 1 2 2 2 2 2 2 2 2 2 3 4 5 8 10 9 9 10 9 9 8 8 7 10 16 16 16 16 15 15 14 12 12 11 13 15 18 20
2 3 2 2 2 2 2 1 1 1 1 2 2 3 4 5 6 7 9 10 11 9 8 7 7 7 7 7 7 15 15 16 16 16 15 15 14 12 11 11 12 13 15
2 3 3 3 3 3 2 1 1 2 2 3 5 5 5 7 6 7 7 8 10 9 8 10 7 7 6 6 9 14 10 15 16 16 16 15 14 12 10 9 8 8 9
2 3 4 4 4 4 3 2 2 3 3 4 5 6 6 6 7 7 7 7 7 10 11 10 7 6 5 6 10 8 8 13 17 18 17 16 14 11 9 7 7 8 8
3 4 4 4 5 5 4 4 4 5 5 5 4 7 7 7 7 7 7 7 8 9 10 8 8 9 9 8 11 8 8 17 18 18 17 16 13 11 10 10 10 11 12
4 5 5 5 5 6 5 5 7 7 7 8 7 7 10 10 8 8 7 8 8 8 10 9 8 8 9 10 9 9 9 9 9 14 12 9 8 9 9 11 12 14 15
5 5 5 6 6 7 6 7 9 9 8 9 9 9 11 9 11 9 8 10 9 9 9 11 8 7 9 10 11 11 10 8 6 4 3 3 4 6 9 12 14 17 18
6 6 6 7 7 7 7 8 9 9 9 9 9 10 11 12 12 11 11 11 9 8 8 9 9 7 8 9 10 10 9 5 4 2 2 4 6 8 11 14 17 19 21
6 7 7 7 7 7 7 7 6 7 8 9 10 11 12 13 13 14 12 12 9 8 8 8 10 10 9 9 7 7 6 4 3 2 2 4 6 9 12 15 18 21 24
7 6 6 6 6 5 4 4 4 6 8 10 12 13 13 17 20 15 11 8 8 8 9 9 10 11 10 8 6 5 5 2 2 1 2 3 4 5 7 12 18 23 28
6 5 4 4 3 2 4 8 9 7 9 11 13 13 14 15 16 17 18 17 15 12 11 11 11 12 13 10 6 5 3 3 2 1 1 3 3 6 7 8 19 30 33
4 3 3 3 3 3 7 10 15 11 11 12 12 12 11 11 15 12 14 17 17 19 19 15 14 14 14 10 6 5 5 3 2 1 1 3 3 5 7 12 27 32 22
4 4 5 5 4 6 11 13 18 12 12 12 12 12 12 13 13 13 12 13 13 14 15 12 12 13 12 8 6 4 5 5 3 1 1 3 3 4 7 11 24 28 10
5 5 4 5 6 9 13 16 17 11 11 13 12 12 12 12 15 17 13 12 13 13 12 14 12 7 5 3 5 6 6 4 2 0 1 2 3 4 5 10 17 25 22
5 5 6 6 8 9 13 15 16 8 10 11 11 11 13 12 14 15 10 9 11 12 11 9 4 8 8 9 9 5 3 3 1 1 2 2 3 3 4 6 11 14 16
Wind_Direction
315 345 341 327 313 299 284 292 306 321 329 332 331 333 343 345 341 348 350 360 2 359 353 345 337 328 318 310 302 292 284 279 273 260 246 238 238 239 238 235 230 230 234
58 56 35 5 350 343 321 281 309 345 348 346 350 355 356 0 10 25 26 17 16 12 7 1 352 342 329 319 311 300 290 280 271 263 249 236 232 232 231 228 223 214 205
70 68 52 33 15 21 43 60 53 62 31 9 358 358 18 27 36 43 44 40 27 19 10 1 355 348 338 327 318 309 301 291 279 264 253 241 231 227 226 224 219 209 195
78 76 69 49 35 45 48 54 40 42 27 6 341 346 12 19 40 50 52 41 27 15 3 358 352 348 342 337 330 323 313 302 292 278 261 248 236 227 222 219 215 207 197
84 87 75 54 44 48 39 38 41 40 23 357 331 351 356 346 28 59 51 28 6 349 345 346 344 337 332 332 333 329 321 311 301 289 274 256 241 229 220 215 211 206 201
67 69 63 50 51 54 39 34 47 46 31 350 336 334 305 276 220 135 46 333 299 294 295 294 309 312 316 315 317 319 318 315 311 302 288 270 249 232 222 214 208 205 203
58 58 57 49 49 56 45 32 35 42 22 357 356 327 300 268 239 201 266 282 276 272 273 284 284 289 291 298 304 306 306 307 308 304 299 284 265 243 228 218 210 207 203
50 60 58 55 50 56 46 33 27 17 354 9 360 314 312 303 274 263 289 271 280 285 294 301 297 290 288 288 290 296 297 295 295 298 298 297 280 258 242 230 219 213 207
56 59 62 65 58 62 56 32 26 17 313 308 284 266 285 284 303 278 276 281 295 296 300 304 300 296 293 289 286 290 288 286 283 283 289 295 293 268 247 235 228 223 217
49 52 53 55 54 46 32 355 18 345 316 307 310 294 269 277 291 300 286 286 294 296 297 299 300 298 294 290 284 287 286 285 284 278 277 282 287 276 250 237 231 230 229
30 30 34 33 32 23 12 1 356 350 336 308 306 308 303 293 260 281 295 294 293 289 292 291 290 289 290 287 287 288 288 290 291 288 281 274 271 263 246 237 232 231 233
3 7 13 18 12 360 346 342 343 341 333 310 294 279 274 282 292 287 292 299 296 293 292 286 283 282 284 284 287 297 298 300 295 292 286 277 265 253 239 233 231 231 230
324 324 338 335 324 312 308 327 338 327 299 289 285 279 272 272 277 282 287 292 292 294 287 280 274 278 284 286 291 298 300 300 296 292 287 279 269 258 245 236 234 234 233
270 281 307 310 307 307 304 294 271 271 260 279 292 292 288 285 281 276 277 289 295 293 286 283 287 273 274 283 284 292 291 293 293 290 286 278 270 263 257 249 246 244 243
286 309 315 314 308 299 283 268 258 265 273 278 288 295 294 291 288 278 268 262 272 289 293 290 286 273 273 281 282 285 284 291 293 289 282 274 262 254 250 251 252 251 252
310 312 304 297 293 287 275 264 264 265 272 278 283 295 298 297 293 283 270 261 252 263 275 279 279 283 287 288 291 293 293 296 292 289 281 271 248 235 238 244 249 251 251
301 298 293 291 288 283 271 257 259 267 269 278 287 293 298 300 295 290 279 267 258 254 267 276 273 278 281 284 292 292 289 285 280 282 280 265 232 232 244 254 258 259 257
287 287 289 287 284 279 269 256 261 267 267 275 285 292 295 298 295 293 285 277 269 259 266 278 282 281 282 287 288 287 285 279 266 280 314 299 266 261 264 267 266 263 259
284 284 280 278 279 281 279 271 267 272 273 278 285 289 291 293 292 289 287 282 276 273 270 280 288 284 283 282 283 280 272 255 237 229 267 274 275 274 272 270 266 262 257
273 276 276 277 283 292 294 294 293 290 290 291 292 290 288 286 283 283 283 278 281 287 288 287 287 286 283 278 266 269 260 219 221 232 272 272 275 282 280 276 271 267 260
268 270 280 291 304 309 324 343 332 317 308 306 302 296 291 289 285 284 285 289 293 289 286 284 283 285 283 276 262 248 246 194 208 222 272 266 280 284 287 286 283 277 269
279 282 289 309 333 351 1 355 342 321 315 309 304 301 298 294 292 295 299 299 295 289 286 282 281 278 278 271 258 236 193 176 210 189 272 278 284 289 294 291 293 293 280
300 322 358 11 7 333 336 335 334 330 314 305 299 298 298 296 298 291 290 294 292 285 279 276 273 271 271 265 244 215 189 181 166 116 263 273 285 294 308 313 318 316 295
17 26 26 15 354 328 330 330 331 326 310 302 297 292 289 290 288 287 288 287 285 284 281 275 266 265 264 256 229 193 150 122 105 57 293 278 305 307 321 328 333 342 360
35 25 12 359 344 330 333 332 333 320 310 307 302 293 288 284 287 292 293 290 291 293 294 292 289 277 252 177 136 128 138 139 136 83 337 310 323 318 326 340 345 4 37
26 9 356 347 340 332 329 328 330 315 309 309 308 302 299 294 295 301 301 295 295 301 311 320 6 60 74 78 79 86 108 110 110 95 357 351 350 347 345 342 356 10 31